This demonstration page uses our WeatherBlox Daily Observations layout. Learn more.

Left ArrowRight Arrow

39.51506, -84.39828

Hourly Observations for May 4, 2018

Temp ( °F °C ) Dew Point ( °F °C ) Humidity (%) Winds ( mph kmh ) Pressure ( in mb ) Visibility ( mi km ) Precip ( " mm )
12:15 am 00:15 Clear 69 20.7 62 16.4 77 77 S 7 11 29.94 1014 10 16 0.00 0.00
12:35 am 00:35 Clear 69 20.6 61 16.2 76 76 S 6 9 29.94 1014 10 16 0.00 0.00
12:55 am 00:55 Clear 68 19.9 61 16.3 80 80 S 5 7 29.94 1014 10 16 0.00 0.00
1:15 am 01:15 Clear 67 19.7 62 16.4 81 81 SW 5 7 29.94 1014 10 16 0.00 0.00
1:35 am 01:35 Clear 67 19.2 61 16.3 83 83 Calm 29.94 1014 10 16 0.00 0.00
1:55 am 01:55 Clear 67 19.4 61 16.3 82 82 Calm 29.94 1014 10 16 0.00 0.00
2:15 am 02:15 Clear 65 18.4 61 16.2 87 87 Calm 29.94 1014 10 16 0.00 0.00
2:35 am 02:35 Clear 63 17 61 16.2 95 95 Calm 29.94 1014 10 16 0.00 0.00
2:55 am 02:55 Clear 61 16.2 60 15.5 96 96 Calm 29.91 1013 10 16 0.00 0.00
3:15 am 03:15 Clear with Mist and Fog 61 16.2 61 16 99 99 Calm 29.91 1013 7 11 0.00 0.00
3:35 am 03:35 Clear 60 15.8 59 14.9 94 94 W 3 6 29.91 1013 10 16 0.00 0.00
3:55 am 03:55 Clear 61 16.1 60 15.4 96 96 S 5 7 29.91 1013 10 16 0.00 0.00
4:15 am 04:15 Clear 67 19.3 61 16.3 83 83 S 8 13 29.91 1013 10 16 0.00 0.00
4:35 am 04:35 Clear 66 18.7 61 15.9 84 84 S 7 11 29.91 1013 10 16 0.00 0.00
4:55 am 04:55 Cloudy 67 19.5 61 16.2 81 81 S 8 13 29.91 1013 10 16 0.00 0.00
5:15 am 05:15 Cloudy 68 19.8 61 16.2 80 80 SSW 9 15 29.91 1013 10 16 0.00 0.00
5:35 am 05:35 Cloudy 67 19.7 61 16 79 79 SW 10 17 29.91 1013 10 16 0.00 0.00
5:55 am 05:55 Mostly Cloudy 69 20.5 60 15.6 74 74 SW 14 22 29.91 1013 10 16 0.00 0.00
6:15 am 06:15 Cloudy 69 20.8 60 15.3 71 71 SW 15 24 29.91 1013 10 16 0.00 0.00
6:35 am 06:35 Cloudy 69 20.6 60 15.5 73 73 SSW 13 20 29.91 1013 10 16 0.00 0.00
6:55 am 06:55 Cloudy 70 21 60 15.5 71 71 SSW 16 26 29.91 1013 10 16 0.00 0.00
7:15 am 07:15 Mostly Cloudy 69 20.5 61 16 76 76 SW 14 22 29.91 1013 10 16 0.00 0.00
7:35 am 07:35 Cloudy 69 20.6 61 16 75 75 SW 14 22 29.91 1013 10 16 0.00 0.00
7:55 am 07:55 Mostly Cloudy 70 21.2 61 16 72 72 SSW 15 24 29.91 1013 10 16 0.00 0.00
8:15 am 08:15 Cloudy 70 21.2 61 16.1 73 73 SW 14 22 29.94 1014 10 16 0.00 0.00
8:35 am 08:35 Partly Cloudy 72 22.2 62 16.6 71 71 SW 14 22 29.94 1014 10 16 0.00 0.00
8:55 am 08:55 Mostly Cloudy 72 22.4 61 16 67 67 WSW 16 26 29.94 1014 10 16 0.00 0.00
9:15 am 09:15 Mostly Cloudy 73 23 61 16.3 66 66 SW 21 33 29.91 1013 10 16 0.00 0.00
9:35 am 09:35 Partly Cloudy 74 23.4 61 16.2 64 64 SW 17 28 29.91 1013 10 16 0.00 0.00
9:55 am 09:55 Partly Cloudy 74 23.6 62 16.6 65 65 SW 17 28 29.91 1013 10 16 0.00 0.00
10:15 am 10:15 Partly Cloudy 75 24.1 61 16.3 62 62 SW 22 35 29.91 1013 10 16 0.00 0.00
10:35 am 10:35 Partly Cloudy 76 24.6 62 16.4 60 60 SW 23 37 29.91 1013 10 16 0.00 0.00
10:55 am 10:55 Sunny 77 25.2 62 16.8 60 60 SW 20 31 29.91 1013 10 16 0.00 0.00
11:15 am 11:15 Partly Cloudy 78 25.6 62 16.8 58 58 SW 23 37 29.88 1012 10 16 0.00 0.00
11:35 am 11:35 Partly Cloudy 78 25.3 62 16.8 59 59 WSW 23 37 29.91 1013 10 16 0.00 0.00
11:55 am 11:55 Partly Cloudy 80 26.5 63 17.3 57 57 SW 28 44 29.91 1013 10 16 0.00 0.00
12:15 pm 12:15 Partly Cloudy 79 26.3 61 16.3 54 54 SW 23 37 29.91 1013 10 16 0.00 0.00
12:35 pm 12:35 Sunny 79 26 62 16.7 57 57 SW 22 35 29.88 1012 10 16 0.00 0.00
12:55 pm 12:55 Partly Cloudy 79 25.9 62 16.5 56 56 WSW 25 41 29.88 1012 10 16 0.00 0.00
1:15 pm 13:15 Mostly Cloudy 79 26.3 62 16.6 55 55 SW 28 44 29.91 1013 10 16 0.00 0.00
1:35 pm 13:35 Mostly Cloudy 79 26 61 16.2 55 55 WSW 24 39 29.91 1013 10 16 0.00 0.00
1:55 pm 13:55 Mostly Cloudy 78 25.4 62 16.5 58 58 WSW 21 33 29.91 1013 10 16 0.00 0.00
2:15 pm 14:15 Partly Cloudy 79 26.2 62 16.9 57 57 W 22 35 29.91 1013 10 16 0.00 0.00
2:35 pm 14:35 Sunny 79 26.3 60 15.7 52 52 SW 17 28 29.91 1013 10 16 0.00 0.00
2:55 pm 14:55 Partly Cloudy 80 26.4 59 15.2 50 50 WSW 22 35 29.91 1013 10 16 0.00 0.00
3:15 pm 15:15 Partly Cloudy 79 26.2 60 15.5 52 52 SW 20 31 29.91 1013 10 16 0.00 0.00
3:35 pm 15:35 Partly Cloudy 81 27.2 60 15.4 49 49 SW 22 35 29.91 1013 10 16 0.00 0.00
3:55 pm 15:55 Mostly Cloudy 79 26.1 59 14.8 50 50 WSW 15 24 29.91 1013 10 16 0.00 0.00
4:15 pm 16:15 Cloudy with Rain 75 23.9 60 15.7 60 60 W 29 46 29.94 1014 7 11 0.05 1.27
4:35 pm 16:35 Cloudy with Heavy Rain 68 20.1 62 16.4 79 79 WSW 20 31 29.91 1013 10 16 0.17 4.32
4:55 pm 16:55 Cloudy with Light Rain 67 19.3 61 16.3 83 83 SW 15 24 29.91 1013 7 11 0.23 5.84
5:15 pm 17:15 Mostly Cloudy 68 19.9 62 16.7 82 82 W 9 15 29.94 1014 10 16 0.00 0.00
5:35 pm 17:35 Partly Cloudy 69 20.4 62 16.6 79 79 WSW 9 15 29.94 1014 10 16 0.00 0.00
5:55 pm 17:55 Mostly Cloudy with Light Rain 68 20.2 62 16.4 79 79 W 9 15 29.97 1015 10 16 0.00 0.00
6:15 pm 18:15 Mostly Cloudy with Light Rain 69 20.5 63 17.2 81 81 WSW 5 7 29.97 1015 10 16 0.00 0.00
6:35 pm 18:35 Partly Cloudy 70 20.9 64 17.8 83 83 WNW 5 7 29.97 1015 10 16 0.00 0.00
6:55 pm 18:55 Mostly Cloudy 71 21.5 62 16.9 75 75 W 5 7 29.97 1015 10 16 0.00 0.00
7:15 pm 19:15 Sunny 71 21.5 62 16.5 73 73 NNW 3 6 29.97 1015 10 16 0.00 0.00
7:35 pm 19:35 Sunny 70 21.1 59 15 68 68 NNW 3 6 29.97 1015 10 16 0.00 0.00
7:55 pm 19:55 Sunny 69 20.7 58 14.4 67 67 NNW 7 11 29.97 1015 10 16 0.00 0.00
8:15 pm 20:15 Sunny 69 20.4 57 14 67 67 NNW 7 11 29.97 1015 10 16 0.00 0.00
8:35 pm 20:35 Clear 68 19.8 57 13.7 68 68 N 10 17 30.00 1016 10 16 0.00 0.00
8:55 pm 20:55 Clear 66 18.9 56 13.6 71 71 N 6 9 30.00 1016 10 16 0.00 0.00
9:15 pm 21:15 Clear 65 18.3 56 13.4 73 73 NNE 5 7 30.03 1017 10 16 0.00 0.00
9:35 pm 21:35 Clear 64 17.8 56 13.3 75 75 NNE 5 7 30.03 1017 7 11 0.00 0.00
9:55 pm 21:55 Clear 64 17.5 56 13.2 76 76 Calm 30.03 1017 10 16 0.00 0.00
10:15 pm 22:15 Clear 60 15.6 58 14.5 93 93 Calm 30.09 1019 10 16 0.00 0.00
10:35 pm 22:35 Clear 58 14.7 57 14.1 96 96 Calm 30.09 1019 10 16 0.00 0.00
10:55 pm 22:55 Clear 56 13.6 56 13.3 98 98 Calm 30.09 1019 7 11 0.00 0.00
11:15 pm 23:15 Clear 57 13.9 56 13.6 98 98 Calm 30.09 1019 10 16 0.00 0.00
11:35 pm 23:35 Clear 55 12.7 54 12.2 97 97 Calm 30.09 1019 10 16 0.00 0.00
11:55 pm 23:55 Mostly Cloudy with Mist and Fog 56 13.3 56 13.1 99 99 Calm 30.09 1019 1 2 0.00 0.00

Powered by AerisWeather